Location: Walnut Hills Mobile Home Park
(34.0445°N, 117.8184°W)
Time: 03:14:49
(UTC+00:00)

Cosmos 1825 Rocket - Pass Details

Date: 17 December 2025
Orbit: 596 x 624 km, 82.5° (Epoch: 15 January)

Event Time Altitude Azimuth Distance (km) Brightness Sun altitude
Rises 13:29:41 0° 180° (S) 2,888 7.2 -16.3°
Reaches altitude 10° 13:31:55 10° 178° (S) 1,984 6.4 -15.9°
Maximum altitude 13:36:17 70° 95° (E) 663 3.9 -15.0°
Drops below altitude 10° 13:40:40 10° 12° (NNE) 1,986 6.1 -14.2°
Sets 13:42:53 0° 10° (N) 2,891 6.9 -13.7°
